Leakey, Texas, United States (78873)
Lat: 29.73N, Lon: 99.76W
Wx Zone: TXZ185
Local Info
Past Weather Observations for Tuesday, August 25, 2015

NOTE: This archive is for the closest National Weather Service station to Leakey. Information may differ from the station used for current weather conditions.

Click here for Long-term Archive

Time Weather Temperature Dewpoint Humidity Pressure Winds Precip Visibility
23:50
Clear
72°F / 22°C 68°F / 20°C 88% 30.18 in
(1022 mb)
Calm - 10SM
23:30
Clear
72°F / 22°C 68°F / 20°C 88% 30.18 in
(1022 mb)
ENE 4.6 mph
(ENE 7 kph)
- 10SM
23:10
Clear
72°F / 22°C 68°F / 20°C 88% 30.18 in
(1022 mb)
Calm - 10SM
22:50
Clear
72°F / 22°C 68°F / 20°C 88% 30.18 in
(1022 mb)
NE 5.8 mph
(NE 9 kph)
- 10SM
22:30
Partly Cloudy
73°F / 23°C 66°F / 19°C 78% 30.18 in
(1022 mb)
NE 8.1 mph
(NE 13 kph)
- 10SM
22:10
Clear
73°F / 23°C 66°F / 19°C 78% 30.15 in
(1021 mb)
Calm - 10SM
21:50
Clear
73°F / 23°C 66°F / 19°C 78% 30.15 in
(1021 mb)
Calm - 10SM
21:30
Clear
73°F / 23°C 64°F / 18°C 74% 30.15 in
(1021 mb)
ENE 6.9 mph
(ENE 11 kph)
- 10SM
21:10
Clear
73°F / 23°C 66°F / 19°C 78% 30.15 in
(1021 mb)
SE 5.8 mph
(SE 9 kph)
- 10SM
20:50
Clear
73°F / 23°C 66°F / 19°C 78% 30.15 in
(1021 mb)
E 3.5 mph
(E 6 kph)
- 10SM
20:30
Clear
72°F / 22°C 66°F / 19°C 83% 30.15 in
(1021 mb)
SSE 5.8 mph
(SSE 9 kph)
- 10SM
20:10
Partly Cloudy
72°F / 22°C 66°F / 19°C 83% 30.15 in
(1021 mb)
E 4.6 mph
(E 7 kph)
- 9SM
19:50
Overcast
Rain
70°F / 21°C 66°F / 19°C 88% 30.18 in
(1022 mb)
NE 5.8 mph
(NE 9 kph)
- 5SM
19:30
Overcast
Rain
72°F / 22°C 64°F / 18°C 78% 30.15 in
(1021 mb)
ESE 9.2 mph
(ESE 15 kph)
- 5SM
19:10
Overcast
Rain
72°F / 22°C 66°F / 19°C 83% 30.18 in
(1022 mb)
ESE 11.5 mph
(ESE 19 kph)
- 1 1/2SM
18:50
Overcast
Heavy Rain
72°F / 22°C 68°F / 20°C 88% 30.15 in
(1021 mb)
ENE 12.7 mph
(ENE 20 kph)
- 1 1/2SM
18:30
Mostly Cloudy
Light Rain
73°F / 23°C 70°F / 21°C 89% 30.15 in
(1021 mb)
NE 10.4 mph
(NE 17 kph)
- 2 1/2SM
18:10
Mostly Cloudy
Thunder Storms
75°F / 24°C 70°F / 21°C 83% 30.15 in
(1021 mb)
NE 15 mph
(NE 24 kph)
- 8SM
17:50
Mostly Cloudy
84°F / 29°C 64°F / 18°C 51% 30.12 in
(1020 mb)
NE 18.4 mph
(NE 30 kph)
- 10SM
17:30
Clear
95°F / 35°C 55°F / 13°C 26% 30.06 in
(1018 mb)
SE 10.4 mph
(SE 17 kph)
- 9SM
17:10
Clear
93°F / 34°C 57°F / 14°C 30% 30.06 in
(1018 mb)
SE 6.9 mph
(SE 11 kph)
- 10SM
16:50
Clear
95°F / 35°C 55°F / 13°C 26% 30.06 in
(1018 mb)
SE 9.2 mph
(SE 15 kph)
- 9SM
16:30
Clear
97°F / 36°C 57°F / 14°C 27% 30.06 in
(1018 mb)
S 8.1 mph
(S 13 kph)
- 10SM
16:10
Clear
99°F / 37°C 55°F / 13°C 24% 30.06 in
(1018 mb)
SSE 10.4 mph
(SSE 17 kph)
- 10SM
15:50
Clear
97°F / 36°C 57°F / 14°C 27% 30.09 in
(1019 mb)
SSE 12.7 mph
(SSE 20 kph)
- 10SM
15:30
Clear
97°F / 36°C 57°F / 14°C 27% 30.09 in
(1019 mb)
Calm - 9SM
15:10
Clear
97°F / 36°C 57°F / 14°C 27% 30.09 in
(1019 mb)
S 9.2 mph
(S 15 kph)
- 10SM
14:50
Clear
97°F / 36°C 57°F / 14°C 27% 30.09 in
(1019 mb)
SE 12.7 mph
(SE 20 kph)
- 10SM
14:30
Clear
97°F / 36°C 57°F / 14°C 27% 30.09 in
(1019 mb)
SSE 15 mph
(SSE 24 kph)
- 10SM
14:10
Clear
97°F / 36°C 57°F / 14°C 27% 30.12 in
(1020 mb)
SE 9.2 mph
(SE 15 kph)
- 9SM
13:50
Clear
97°F / 36°C 57°F / 14°C 27% 30.12 in
(1020 mb)
SE 10.4 mph
(SE 17 kph)
- 9SM
13:30
Clear
95°F / 35°C 57°F / 14°C 28% 30.12 in
(1020 mb)
SSE 10.4 mph
(SSE 17 kph)
- 10SM
13:10
Clear
93°F / 34°C 59°F / 15°C 32% 30.15 in
(1021 mb)
SSE 11.5 mph
(SSE 19 kph)
- 10SM
12:50
Clear
95°F / 35°C 61°F / 16°C 32% 30.15 in
(1021 mb)
SE 5.8 mph
(SE 9 kph)
- 10SM
12:30
Clear
93°F / 34°C 63°F / 17°C 36% 30.18 in
(1022 mb)
SE 9.2 mph
(SE 15 kph)
- 10SM
12:10
Clear
93°F / 34°C 63°F / 17°C 36% 30.18 in
(1022 mb)
SE 3.5 mph
(SE 6 kph)
- 10SM
11:50
Clear
91°F / 33°C 61°F / 16°C 36% 30.18 in
(1022 mb)
SE 9.2 mph
(SE 15 kph)
- 10SM
11:30
Clear
91°F / 33°C 63°F / 17°C 38% 30.18 in
(1022 mb)
SE 5.8 mph
(SE 9 kph)
- 8SM
11:10
Clear
91°F / 33°C 61°F / 16°C 36% 30.21 in
(1023 mb)
E 8.1 mph
(E 13 kph)
- 10SM
10:50
Clear
90°F / 32°C 63°F / 17°C 41% 30.21 in
(1023 mb)
ESE 4.6 mph
(ESE 7 kph)
- 10SM
10:30
Clear
88°F / 31°C 66°F / 19°C 49% 30.21 in
(1023 mb)
SSE 3.5 mph
(SSE 6 kph)
- 9SM
10:10
Clear
88°F / 31°C 66°F / 19°C 49% 30.21 in
(1023 mb)
S 3.5 mph
(S 6 kph)
- 10SM
09:50
Clear
88°F / 31°C 66°F / 19°C 49% 30.21 in
(1023 mb)
SSE 8.1 mph
(SSE 13 kph)
- 10SM
09:30
Clear
86°F / 30°C 66°F / 19°C 52% 30.21 in
(1023 mb)
SSE 4.6 mph
(SSE 7 kph)
- 10SM
09:10
Clear
86°F / 30°C 66°F / 19°C 52% 30.21 in
(1023 mb)
SSE 6.9 mph
(SSE 11 kph)
- 10SM
08:50
Clear
82°F / 28°C 68°F / 20°C 62% 30.21 in
(1023 mb)
SW 5.8 mph
(SW 9 kph)
- 10SM
08:30
Clear
82°F / 28°C 70°F / 21°C 66% 30.21 in
(1023 mb)
SW 6.9 mph
(SW 11 kph)
- 10SM
08:10
Clear
81°F / 27°C 70°F / 21°C 70% 30.21 in
(1023 mb)
SSE 5.8 mph
(SSE 9 kph)
- 10SM
07:50
Clear
79°F / 26°C 72°F / 22°C 79% 30.21 in
(1023 mb)
SSE 6.9 mph
(SSE 11 kph)
- 9SM
07:30
Clear
79°F / 26°C 70°F / 21°C 74% 30.18 in
(1022 mb)
SSE 6.9 mph
(SSE 11 kph)
- 9SM
07:10
Clear
77°F / 25°C 70°F / 21°C 79% 30.18 in
(1022 mb)
S 5.8 mph
(S 9 kph)
- 10SM
06:50
Clear
73°F / 23°C 68°F / 20°C 83% 30.18 in
(1022 mb)
Calm - 9SM
06:30
Clear
73°F / 23°C 66°F / 19°C 78% 30.18 in
(1022 mb)
Calm - 9SM
06:10
Clear
72°F / 22°C 66°F / 19°C 83% 30.15 in
(1021 mb)
Calm - 10SM
05:50
Clear
72°F / 22°C 66°F / 19°C 83% 30.15 in
(1021 mb)
Calm - 10SM
05:30
Clear
72°F / 22°C 66°F / 19°C 83% 30.15 in
(1021 mb)
Calm - 10SM
05:10
Clear
73°F / 23°C 66°F / 19°C 78% 30.15 in
(1021 mb)
Calm - 10SM
04:50
Clear
73°F / 23°C 66°F / 19°C 78% 30.15 in
(1021 mb)
Calm - 10SM
04:30
Clear
73°F / 23°C 66°F / 19°C 78% 30.15 in
(1021 mb)
Calm - 10SM
04:10
Clear
73°F / 23°C 66°F / 19°C 78% 30.15 in
(1021 mb)
Calm - 10SM
03:50
Clear
73°F / 23°C 66°F / 19°C 78% 30.15 in
(1021 mb)
Calm - 10SM
03:30
Clear
73°F / 23°C 66°F / 19°C 78% 30.15 in
(1021 mb)
SSE 5.8 mph
(SSE 9 kph)
- 10SM
03:10
Clear
75°F / 24°C 66°F / 19°C 74% 30.15 in
(1021 mb)
SSE 4.6 mph
(SSE 7 kph)
- 10SM
02:50
Clear
75°F / 24°C 66°F / 19°C 74% 30.15 in
(1021 mb)
Calm - 10SM
02:30
Clear
75°F / 24°C 66°F / 19°C 74% 30.15 in
(1021 mb)
SSE 6.9 mph
(SSE 11 kph)
- 10SM
02:10
Clear
77°F / 25°C 66°F / 19°C 69% 30.15 in
(1021 mb)
SSE 6.9 mph
(SSE 11 kph)
- 10SM
01:50
Clear
77°F / 25°C 64°F / 18°C 65% 30.15 in
(1021 mb)
SSE 8.1 mph
(SSE 13 kph)
- 10SM
01:30
Clear
77°F / 25°C 64°F / 18°C 65% 30.15 in
(1021 mb)
SSE 6.9 mph
(SSE 11 kph)
- 10SM
01:10
Clear
79°F / 26°C 63°F / 17°C 58% 30.15 in
(1021 mb)
SSE 8.1 mph
(SSE 13 kph)
- 10SM
00:50
Clear
79°F / 26°C 63°F / 17°C 58% 30.15 in
(1021 mb)
SSE 6.9 mph
(SSE 11 kph)
- 10SM
00:30
Clear
75°F / 24°C 61°F / 16°C 61% 30.15 in
(1021 mb)
Calm - 10SM
00:10
Clear
77°F / 25°C 61°F / 16°C 57% 30.15 in
(1021 mb)
Calm - 10SM
Time Weather Temperature Dewpoint Humidity Pressure Winds Precip Visibility


Weather for websites

WeatherForYou.com, LLC is not responsible for any damages or problems caused by this service. Current weather conditions are obtained from the closest station including government and personal stations which may have varying degrees of accuracy. Weather forecasts are derived from the NOAA NDFD. Like all things, this site belongs to Jesus Christ... He just trusts us to maintain it. If you have any questions or comments email webmaster@weatherforyou.com

Copyright © 2015, WeatherForYou.com LLC. All rights reserved.